RH
28 30 33 15 6 11 11 9 7 5 4 5 8 13 25 24 25 61 69 70 76 81 89 94 94 94 95 93 90 91 87 91 78 67 72 66 63 56 58 57 57 46 39
30 33 30 7 8 12 10 8 6 5 4 4 7 13 21 18 46 68 72 74 83 87 90 94 95 96 97 97 94 95 92 93 86 73 82 79 73 64 61 58 57 49 40
32 36 18 7 11 12 10 8 6 5 4 4 6 12 14 27 65 72 74 78 86 92 92 95 94 96 97 98 98 94 96 92 90 82 86 88 82 70 65 62 59 50 36
35 36 9 8 13 12 10 8 6 5 4 3 6 12 16 54 69 73 76 80 88 95 95 95 96 97 96 97 98 97 97 95 92 88 92 96 91 81 74 67 63 52 37
39 26 7 12 13 12 10 8 6 4 3 3 8 12 39 68 70 72 76 80 88 96 97 97 97 98 98 96 97 98 97 98 96 94 96 96 94 89 84 78 69 57 45
42 11 9 14 13 11 10 8 6 4 3 5 10 23 60 70 73 79 77 83 87 94 95 97 97 98 97 97 98 98 98 97 97 96 98 97 95 92 90 88 81 65 51
31 7 12 15 13 12 10 7 5 3 3 8 11 37 67 73 76 81 80 84 89 92 97 97 98 97 97 97 97 97 98 97 97 98 99 99 97 95 95 94 85 71 60
12 8 15 14 14 12 10 7 5 3 4 8 14 46 70 75 79 83 83 84 90 95 97 97 97 97 97 96 97 97 97 97 98 99 99 98 99 97 99 100 97 85 72
9 12 16 15 14 13 10 7 5 3 4 8 17 49 72 76 81 84 83 83 92 96 97 97 97 98 98 98 98 98 98 98 97 97 98 98 98 99 100 99 100 94 94
8 16 16 16 15 14 11 7 4 3 4 7 20 48 74 78 84 83 82 83 91 97 98 97 98 98 98 97 98 98 99 97 97 96 95 95 96 96 98 98 99 97 97
13 17 17 17 16 14 11 7 5 3 4 7 20 44 65 79 84 82 82 83 87 93 95 93 95 98 100 98 97 97 97 98 97 97 96 96 96 96 97 96 96 98 84
17 18 18 19 18 15 11 7 5 3 4 6 13 31 47 76 84 83 83 89 90 91 89 90 96 99 100 99 97 96 97 97 97 96 96 98 97 98 98 98 97 96 90
19 19 20 20 20 17 12 8 6 4 3 4 7 10 24 39 83 86 89 92 91 92 91 95 99 97 100 98 97 97 97 98 96 97 96 96 97 97 98 97 96 99 98
20 22 22 23 22 19 14 10 8 6 4 3 4 6 7 15 41 86 90 92 95 98 95 95 97 97 97 98 97 97 97 97 97 97 96 96 97 96 96 95 96 97 97
22 24 25 25 25 22 17 13 10 8 8 6 4 4 5 6 12 51 89 87 91 96 96 98 98 98 98 98 97 97 96 97 96 96 96 96 96 97 97 96 96 95 97
24 26 27 27 28 26 22 17 13 10 9 8 8 6 4 4 6 18 82 91 95 98 98 96 96 96 97 97 97 97 96 97 96 96 97 97 96 96 96 97 96 97 96
25 26 26 27 30 30 27 23 18 14 12 11 9 9 8 5 4 6 30 90 96 98 95 92 94 93 95 97 97 96 96 96 96 96 97 96 96 97 96 96 96 96 96
24 19 15 18 24 29 32 30 25 20 17 15 14 12 10 8 6 5 7 49 90 90 93 93 92 93 93 94 96 96 97 97 96 96 96 96 96 95 96 97 97 96 96
15 10 8 9 11 17 25 32 33 28 24 20 18 16 15 11 8 6 5 5 20 58 77 85 89 88 90 88 93 96 95 96 95 95 96 96 96 96 96 96 96 96 95
7 6 6 6 7 8 11 18 32 35 32 28 24 21 20 18 14 10 7 5 4 6 17 44 68 80 83 84 88 90 91 95 96 95 96 96 95 88 89 96 88 75 71
6 5 5 6 6 6 7 9 12 24 35 35 31 28 25 22 21 19 14 10 7 5 5 6 10 25 45 61 67 73 73 74 74 73 81 88 89 88 82 75 77 75 65
6 6 6 6 6 6 6 7 8 10 14 29 35 34 31 28 26 24 22 19 16 11 9 6 5 5 7 11 21 37 57 65 67 67 66 66 66 65 65 66 65 62 66
6 7 7 8 8 8 7 6 6 7 8 11 18 32 35 33 31 29 27 25 24 22 19 15 12 9 7 6 6 7 10 16 25 40 53 60 60 59 58 55 52 53 50
7 7 8 8 8 9 10 9 8 7 7 8 10 12 23 35 34 33 31 30 29 27 26 24 22 20 19 17 15 12 10 8 7 7 8 10 16 22 28 34 38 42 44
7 7 7 8 8 9 10 10 10 10 8 7 7 9 11 14 29 35 34 33 32 30 29 28 26 24 23 21 20 18 15 13 12 11 9 8 8 8 7 7 6 6 6
7 7 7 8 9 10 11 11 11 10 9 8 7 7 8 10 13 17 32 34 34 33 32 30 28 27 25 24 22 20 16 13 11 9 7 7 7 6 6 6 6 6 7
Wind_Speed
33 31 28 24 23 24 26 27 28 29 29 28 28 28 28 29 31 33 29 30 30 28 25 23 20 18 16 16 17 17 18 18 19 16 14 20 20 20 21 24 30 35 41
32 29 25 22 22 24 25 27 28 30 30 30 28 27 28 30 32 31 29 29 28 27 25 22 19 16 15 15 16 17 17 16 16 14 12 16 15 17 18 22 28 34 39
30 28 23 21 22 24 26 28 30 30 30 29 27 27 28 31 33 29 29 29 27 27 25 23 20 18 16 16 15 15 14 13 13 12 9 11 11 14 16 20 26 33 38
28 25 21 22 24 25 27 28 30 30 31 29 25 26 29 32 31 28 29 29 27 25 24 22 21 19 19 17 14 13 12 10 10 9 8 8 9 12 15 19 25 32 35
27 23 21 22 23 25 26 28 30 31 31 26 23 26 29 31 30 30 31 29 27 24 23 22 20 19 18 16 14 10 9 8 7 7 7 8 8 11 14 18 23 29 33
25 20 19 21 23 24 26 28 29 31 28 22 24 26 30 29 28 29 31 29 27 24 22 21 19 18 17 15 13 10 7 5 5 5 6 6 8 10 13 16 20 26 30
20 17 19 20 22 24 26 28 30 29 23 22 24 27 29 27 27 28 29 29 26 24 22 20 18 18 17 15 13 10 7 4 2 2 4 5 7 10 13 15 18 23 26
16 16 18 19 22 24 26 28 29 27 23 22 24 27 29 26 26 26 28 27 26 23 22 20 19 18 17 15 13 10 7 4 3 2 1 3 7 10 13 14 14 17 21
14 15 16 19 21 23 26 26 28 27 23 22 23 27 28 26 26 25 25 24 25 24 22 22 20 18 17 16 13 10 8 6 4 2 1 4 8 11 14 15 16 18 16
12 13 16 18 20 23 25 26 29 28 23 22 23 26 28 27 26 24 23 22 22 23 23 23 23 21 18 15 13 10 8 7 6 5 5 5 8 12 14 15 16 18 17
10 13 15 17 20 22 23 27 29 27 23 21 23 25 28 28 26 24 22 21 22 24 24 25 25 23 20 17 15 12 10 8 7 7 7 6 8 12 13 15 16 17 13
10 12 14 16 19 20 24 26 27 26 22 20 20 22 25 28 27 25 22 22 22 24 25 27 27 25 22 18 15 14 12 10 8 7 8 7 8 11 13 14 15 16 13
9 11 13 16 17 20 22 23 25 26 23 20 20 20 21 25 27 25 23 23 24 25 24 25 24 24 22 18 15 12 10 10 9 8 8 8 9 11 12 14 15 16 14
8 10 13 15 16 19 20 21 24 25 25 22 20 19 21 22 24 25 25 24 24 23 22 22 22 22 22 21 17 13 12 11 11 11 10 11 12 11 12 15 15 16 15
7 11 13 14 16 17 18 20 23 25 27 27 24 22 21 22 25 30 29 26 24 23 22 21 19 19 22 22 21 17 14 13 13 14 13 12 12 13 12 11 13 13 13
8 10 11 13 15 16 17 19 21 24 26 28 29 28 26 25 26 28 30 25 23 21 21 23 24 24 25 26 24 22 18 15 15 15 15 15 15 14 15 15 14 14 14
8 9 10 12 14 16 17 18 19 21 24 27 29 29 30 28 26 26 25 26 23 21 22 26 26 27 28 28 28 26 23 19 17 16 16 16 16 17 16 18 19 19 18
6 7 9 11 13 15 16 17 18 20 23 25 26 28 29 28 27 25 23 22 22 23 25 27 28 28 28 30 31 30 26 24 22 19 18 17 18 17 18 18 20 23 24
5 6 8 9 11 13 15 17 18 19 21 23 24 25 26 28 28 27 23 21 23 24 25 26 27 26 27 28 30 30 30 27 26 24 22 21 19 18 18 20 21 21 22
4 5 7 8 10 11 13 15 16 18 19 19 20 21 23 24 25 28 29 27 25 25 24 25 26 25 24 24 26 27 26 28 29 28 27 26 26 23 21 21 20 22 22
3 4 6 8 9 10 11 13 14 16 18 18 18 19 21 21 23 25 27 28 29 29 27 26 25 25 25 25 25 25 24 25 26 29 30 29 28 28 26 24 24 22 24
2 3 5 7 8 10 11 12 13 14 15 16 18 18 18 19 20 22 23 25 26 28 29 29 28 26 25 24 24 25 25 24 25 25 27 28 28 29 30 29 27 28 30
2 3 4 6 8 9 11 12 13 13 14 14 15 16 17 18 18 19 20 21 22 23 25 26 28 28 29 28 26 25 24 24 25 26 26 26 26 27 27 28 29 30 30
2 1 2 4 6 8 10 11 12 13 14 14 14 14 15 16 17 17 17 18 19 19 20 21 23 24 25 26 27 28 29 29 27 26 25 24 24 24 25 26 27 27 29
3 1 1 3 5 6 8 10 11 12 13 13 13 13 13 14 14 15 16 16 16 17 17 18 18 19 20 21 22 23 24 24 25 25 25 26 27 26 27 27 28 28 29
5 3 3 3 4 5 6 8 10 11 12 12 13 12 12 12 12 13 13 14 14 14 15 15 16 17 17 17 18 19 20 21 21 21 21 22 23 23 25 25 26 26 26
Wind_Direction
330 332 334 335 339 343 343 342 341 339 339 336 335 335 337 337 338 339 337 339 339 340 339 336 332 325 318 310 301 297 292 290 289 294 272 260 254 244 236 226 216 211 211
330 332 334 335 342 344 342 343 342 342 341 338 337 339 340 339 340 340 341 341 341 345 344 342 338 331 322 311 303 297 292 287 286 289 269 261 252 240 233 225 214 210 209
330 333 334 337 345 344 346 346 344 344 341 341 340 342 342 342 343 344 344 344 345 347 347 344 341 334 328 321 312 303 294 285 282 286 278 261 246 232 225 218 210 208 209
331 332 333 344 348 348 348 346 346 344 344 343 345 347 345 343 345 347 348 347 349 349 347 345 341 336 334 330 324 311 298 286 280 285 278 254 237 221 214 209 205 206 208
331 332 343 351 350 349 348 348 348 347 346 348 353 351 347 346 348 350 351 352 353 353 349 346 343 341 337 337 335 329 313 296 286 281 261 239 217 208 203 200 200 202 205
334 340 350 353 350 350 352 351 349 350 350 357 356 354 350 352 351 352 353 355 355 356 354 352 349 348 350 348 348 349 342 324 302 271 247 228 204 199 193 194 195 198 202
338 347 353 352 352 354 354 354 353 352 357 359 358 356 355 356 352 355 356 357 1 3 0 359 358 359 0 360 360 3 9 358 337 250 234 219 195 188 184 188 193 196 197
342 354 354 354 356 356 357 358 353 358 1 1 360 359 0 359 356 357 1 4 9 10 7 7 7 8 8 8 9 13 19 38 52 27 288 201 183 180 176 172 178 183 188
353 358 355 358 358 358 2 356 358 4 3 2 2 4 4 3 1 2 4 9 14 15 14 15 15 17 17 16 15 18 24 45 42 30 78 150 169 173 172 171 169 169 180
2 356 360 360 2 5 0 1 5 5 5 4 6 7 9 7 7 8 9 13 17 19 20 22 19 20 21 26 27 29 38 47 52 52 69 114 153 167 171 171 165 157 152
358 2 3 5 8 6 3 9 7 6 7 6 7 9 11 11 12 13 14 17 21 23 25 26 24 21 20 23 31 45 52 56 64 58 60 86 139 159 170 171 162 156 154
6 7 8 11 12 6 11 13 10 10 9 9 9 10 13 15 15 16 17 21 26 26 27 29 27 23 23 25 29 36 48 59 67 71 69 84 125 151 162 172 174 169 164
14 12 14 19 13 12 18 15 15 16 14 12 13 13 16 18 19 19 20 26 29 28 27 30 28 26 27 33 35 42 52 62 68 78 87 102 119 137 150 164 174 176 177
20 21 23 19 16 19 21 19 22 23 25 22 19 17 21 22 25 28 30 31 31 30 28 28 26 28 33 35 46 57 61 70 77 87 98 110 113 126 150 157 162 169 170
32 32 27 20 22 24 22 23 26 27 29 30 28 28 26 26 28 31 33 32 33 31 32 34 35 38 43 44 47 53 61 69 80 86 94 104 110 117 131 141 155 163 167
46 39 31 26 27 27 25 26 28 30 32 32 32 31 30 30 31 33 34 31 34 35 38 41 46 49 49 49 51 56 62 71 79 87 95 104 106 111 121 125 133 149 166
56 44 35 32 32 30 28 29 31 33 34 35 34 33 32 32 32 35 35 34 40 44 45 47 49 51 52 51 52 57 61 67 77 87 95 101 105 106 111 120 122 128 141
56 40 31 32 33 30 30 32 32 33 33 34 35 36 34 35 36 38 38 39 44 48 51 51 51 53 55 54 53 56 60 67 74 80 90 98 105 109 110 109 111 112 118
50 29 27 29 30 29 29 33 33 34 33 34 34 35 35 38 40 42 44 45 48 51 52 54 54 55 55 54 54 53 57 62 70 77 85 91 96 101 106 109 108 106 106
50 28 29 28 28 29 27 32 33 36 35 34 33 34 37 39 41 43 46 47 49 51 52 55 56 56 56 55 54 56 59 61 66 72 74 80 86 91 100 102 104 110 113
53 34 35 34 29 31 28 31 31 34 35 34 34 34 37 38 41 43 46 47 50 52 52 54 55 58 58 59 61 64 65 69 69 73 74 77 81 86 89 98 103 105 112
82 53 44 41 35 33 31 32 31 31 33 33 34 33 35 37 40 42 45 47 49 52 53 55 56 58 60 62 63 66 68 70 73 73 76 77 80 82 87 92 95 101 102
115 73 54 45 40 37 33 32 32 30 32 30 31 32 34 36 37 41 44 47 48 50 53 55 58 59 62 64 66 67 70 72 75 77 77 79 82 86 89 89 92 94 95
164 87 46 35 33 35 32 28 31 30 31 29 27 28 30 35 36 37 41 45 49 50 52 54 57 59 61 65 67 68 70 71 71 76 80 82 83 85 88 92 94 93 97
194 217 334 0 10 21 24 22 23 25 27 28 25 25 26 29 32 36 38 41 45 50 52 53 56 58 60 62 65 67 69 71 73 74 77 82 84 86 88 89 90 92 92
215 239 275 314 341 360 14 18 17 18 20 22 21 21 21 24 27 30 34 37 41 45 50 53 55 58 58 60 63 64 66 70 73 77 79 81 84 87 90 91 91 91 90